Regional Weather Roundup
Issued by NWS

Home | Current Version | Previous Version | Text Only | Print | Product List | Glossary On
Versions: 1 2 3 4 5 6 7 8 9 10 11 12 13 14 15 16 17 18 19 20 21 22 23 24 25 26 27
000
ASUS44 KJAN 111310
RWRMS

MISSISSIPPI HOURLY WEATHER ROUNDUP
NATIONAL WEATHER SERVICE JACKSON MS
700 AM CST MON DEC 11 2017

NOTE: "FAIR: INDICATES FEW OR NO CLOUDS BELOW 12,000 FEET WITH NO
SIGNIFICANT WEATHER AND/OR OBSTRUCTIONS TO VISIBILITY.

MSZ001>002-007>008-010>013-018>021-025>028-034>036-111400-
NORTHWEST MISSISSIPPI

CITY           SKY/WX    TMP DP  RH WIND       PRES   REMARKS
BATESVILLE     FAIR      28  26  93 CALM      30.20R
CLARKSDALE     PTCLDY    36  34  93 S3        30.20R
CLEVELAND      FAIR      35  32  92 SW3       30.21S
GREENWOOD      CLEAR     34  30  85 S6        30.22S WCI  29
GREENVILLE     CLEAR     35  28  75 SW6       30.20F WCI  30
OLIVE BRANCH   CLEAR     32  30  93 S6        30.15  WCI  26
TUNICA           N/A    N/A N/A N/A S7        30.19S
WINONA         FAIR      27  27 100 CALM      30.22S
$$

MSZ003>006-009-014>017-022>024-029>033-037>039-111400-
NORTHEAST MISSISSIPPI

CITY           SKY/WX    TMP DP  RH WIND       PRES   REMARKS
ABERDEEN       FAIR      27  27 100 CALM      30.22R
COLUMBUS AFB   CLEAR     28  26  94 CALM      30.21R
CORINTH        FAIR      28  27  93 S6        30.16S WCI  22
GOLDN TRIANGLE CLEAR     35  29  78 SW5       30.21R WCI  31
STARKVILLE     FAIR      32  30  93 CALM      30.22S
TUPELO         CLEAR     30  26  85 CALM      30.19R
$$

MSZ040-058-111400-
CENTRAL MISSISSIPPI

CITY           SKY/WX    TMP DP  RH WIND       PRES   REMARKS
JACKSON INTL   CLEAR     36  30  79 S3        30.23S
JACKSON HAWKNS CLEAR     38  31  76 W3        30.24S
MADISON        FAIR      36  32  87 CALM      30.23F
MERIDIAN KEY   CLEAR     31  29  92 S5        30.25S WCI  26
MERIDIAN NAS   CLEAR     39  31  72 W6        30.24R WCI  35
RAYMOND          N/A     30  30 100 CALM      30.24F
VICKSBURG VKS  SUNNY     37  32  81 CALM      30.26S
$$

MSZ059>079-111400-
SOUTH MISSISSIPPI

CITY           SKY/WX    TMP DP  RH WIND       PRES   REMARKS
HATTIESBURG    CLEAR     30  30 100 CALM      30.28S
LAUREL         FAIR      31  31 100 CALM      30.27S
MCCOMB         CLEAR     32  29  88 CALM      30.28R
NATCHEZ        CLEAR     35  32  88 S5        30.28R WCI  31
PINE BELT      CLEAR     29  29 100 CALM      30.27S
$$

MSZ080>082-111400-
COASTAL MISSISSIPPI

CITY           SKY/WX    TMP DP  RH WIND       PRES   REMARKS
BAY ST LOUIS   CLEAR     30  28  93 CALM      30.32
BILOXI         CLEAR     35  34  94 W5        30.30R WCI  31
PASCAGOULA     CLEAR     30  27  88 CALM      30.31S
GULFPORT       CLEAR     33  32  96 CALM      30.31R FOG
$$

LAZ007>009-015>016-023>026-111400-
NORTHEAST LOUISIANA

CITY           SKY/WX    TMP DP  RH WIND       PRES   REMARKS
BASTROP        FAIR      38  32  77 CALM      30.23F
TALLULAH/VBURG CLEAR     31  31 100 CALM      30.25F
VIDALIA          N/A    N/A N/A N/A MISG      30.27S
$$




USA.gov is the U.S. government's official web portal to all federal, state and local government web resources and services.